Вернуться в каталог

FENGYUN 1C DEB

LostPO
NORAD 36731·DEBRIS·🇨🇳 China

Запущен May 10, 1999 с Taiyuan Satellite Launch Center

Loading…

Ближайшие Пролёты (ближайшие 24 часа)

TLE

УстаревшееSource: Space-Track

Эпоха: Sep 9, 2022, 02:56 UTC

1 36731U 99025EBD 22252.12283576  .00002779  00000-0  95981-3 0  9992
2 36731  99.1355 212.8648 0049948  27.4015 332.9787 14.35977747714339

Отслеживайте FENGYUN 1C DEB в реальном времени с AllMySat

Download on the App Store